Temperature
16 16 17 17 17 17 17 17 17 17 17 17 17 17 17 17 17 17 17 17 17 17 17 17 17 16 16 16 16 16 16 15 15 15 15 15 15 15 15 14 14 14 14
16 16 16 17 17 17 17 17 17 17 17 17 17 17 17 17 17 17 17 17 17 17 16 16 16 16 16 16 16 16 15 15 15 15 15 15 14 14 14 14 14 13 13
15 16 16 16 17 17 17 17 17 17 17 17 17 17 17 17 17 17 17 17 16 16 16 16 16 16 16 16 16 15 15 15 15 15 14 14 14 14 14 13 13 13 13
15 15 16 16 16 16 16 16 17 17 17 17 17 16 16 16 16 16 16 16 16 16 16 16 16 16 16 15 15 15 15 15 15 15 14 13 13 13 13 13 13 13 13
15 15 15 16 16 16 16 16 16 16 16 16 16 16 16 16 16 16 16 16 16 16 16 16 16 15 15 15 15 15 15 15 15 14 13 13 13 13 13 13 12 12 12
14 15 15 16 16 16 16 16 16 16 16 16 16 16 16 16 16 16 16 16 16 16 16 16 15 15 15 15 15 15 15 15 14 13 13 13 13 13 13 12 12 12 12
14 15 15 15 16 16 16 16 16 16 16 16 16 16 16 16 16 16 15 15 15 15 15 15 15 15 15 15 15 15 15 14 13 13 13 13 12 13 12 12 12 12 12
14 14 14 15 15 16 16 16 16 16 16 16 16 16 15 15 15 15 15 15 15 15 15 15 15 14 14 14 14 14 14 14 13 13 13 12 12 12 12 12 12 12 12
13 14 14 14 15 15 15 15 15 16 15 15 15 15 15 15 15 15 15 15 15 15 15 15 14 14 14 14 14 14 14 14 13 13 12 12 12 12 12 12 12 12 11
13 13 13 13 14 14 14 15 15 15 15 15 15 15 15 15 15 15 15 15 15 15 14 14 14 14 14 14 14 14 14 13 13 12 12 12 12 12 12 12 12 11 11
12 12 13 13 13 13 14 14 14 14 15 15 15 15 14 14 14 14 14 14 14 14 14 14 14 14 14 14 14 13 13 13 12 12 12 12 12 12 12 11 11 11 11
11 12 12 12 12 13 13 13 13 13 14 14 14 14 14 14 14 14 14 14 14 14 14 14 13 13 13 13 13 13 12 12 12 12 12 12 12 12 11 11 11 11 11
11 11 11 12 12 12 12 13 13 13 13 13 13 13 13 13 13 13 14 13 13 13 13 13 13 13 13 13 13 12 12 12 12 12 12 12 12 12 11 11 11 11 10
10 11 11 11 11 12 12 12 12 12 12 13 13 13 13 13 13 13 13 13 13 13 12 12 12 12 12 12 12 12 12 12 12 12 12 12 12 11 11 11 11 11 10
10 10 10 11 11 11 11 11 12 12 12 12 12 12 12 12 12 12 12 12 12 12 12 12 12 12 12 12 12 12 12 12 12 12 12 12 12 11 11 11 11 11 10
9 9 10 10 10 10 10 11 11 11 12 12 12 12 12 12 12 12 12 12 12 12 12 12 12 12 12 12 11 11 11 11 11 11 11 11 11 11 11 11 10 10 10
9 9 9 10 10 10 10 10 10 11 11 11 11 11 11 11 11 11 11 11 11 11 11 11 11 11 11 11 11 11 11 11 11 11 11 11 11 11 11 11 10 10 10
8 8 9 9 9 10 10 10 10 10 10 11 11 11 11 11 11 11 11 11 11 11 11 11 11 11 11 11 11 11 11 11 11 11 11 11 11 11 11 11 10 10 10
8 8 8 9 9 9 9 10 10 10 10 10 10 10 10 11 11 10 10 10 10 10 10 10 10 10 10 10 10 11 11 11 11 11 11 11 10 10 10 10 10 10 10
8 8 8 8 8 9 9 9 9 9 10 10 10 10 10 10 10 10 10 10 10 10 10 10 10 9 10 10 10 10 10 10 11 11 10 10 10 10 10 10 10 10 10
8 8 8 8 8 8 8 8 9 9 9 9 9 9 9 10 10 10 9 9 9 9 9 9 9 9 9 9 9 9 10 10 10 10 10 10 10 10 10 10 10 10 9
7 7 7 8 8 8 8 8 8 8 9 9 9 9 9 9 9 9 9 9 9 9 9 9 9 9 9 9 9 9 9 9 10 10 10 10 10 10 10 10 10 9 9
7 7 7 7 7 8 8 8 8 8 8 8 8 8 9 8 8 8 9 9 8 9 9 9 9 9 9 9 9 9 10 10 9 9 10 10 10 9 9 9 9 9 9
7 7 7 7 7 7 7 7 7 7 8 8 8 8 8 8 8 8 8 8 8 8 8 8 8 8 9 8 8 9 10 10 9 9 9 9 9 9 9 9 9 9 9
6 6 7 7 7 7 7 7 7 7 7 8 8 8 8 8 8 8 8 8 8 8 8 8 8 8 8 8 9 9 9 9 9 9 9 9 9 9 9 9 9 9 9
6 6 6 6 7 7 7 6 7 7 7 7 7 7 7 7 8 7 7 7 8 7 8 8 8 8 8 8 8 9 9 9 9 9 9 9 9 9 9 9 9 9 9
Wind_Speed
7 7 7 6 4 3 3 6 8 10 11 12 12 12 13 14 14 14 14 14 14 14 14 14 14 13 13 13 13 13 13 13 13 13 12 12 12 11 11 10 10 11 13
8 6 6 6 5 4 4 4 6 8 10 11 11 12 12 13 13 14 14 14 14 14 14 14 13 13 13 14 14 13 13 13 13 13 12 11 11 10 10 10 9 11 13
7 6 5 7 6 4 3 4 4 6 8 9 10 11 12 13 13 13 14 13 13 14 14 13 14 14 14 14 14 13 13 13 12 11 9 9 10 9 10 10 11 12 12
7 5 5 7 7 5 4 4 4 5 6 8 9 10 11 12 12 13 13 13 13 13 13 13 13 14 14 14 14 13 13 12 11 8 7 7 8 10 10 11 11 11 12
6 5 5 6 6 5 5 3 3 4 5 6 8 9 10 10 11 12 13 13 13 13 13 13 13 14 14 14 14 14 13 12 10 7 7 7 7 10 11 11 11 12 12
6 6 5 5 4 4 4 4 3 3 4 5 6 7 8 9 10 11 11 12 13 13 13 13 13 14 14 14 14 14 13 12 10 8 7 7 8 10 11 11 11 11 11
7 6 6 5 4 3 3 3 3 2 3 4 5 7 7 8 9 10 10 11 12 13 13 13 13 14 14 14 14 13 12 11 8 7 7 7 8 10 10 10 11 11 10
7 6 5 5 3 2 2 1 1 1 2 4 4 5 7 7 8 8 9 10 11 12 13 13 14 14 15 15 14 14 13 10 8 7 7 7 9 9 10 10 10 10 9
6 5 5 5 4 2 1 0 1 1 1 3 5 4 6 7 8 8 8 9 10 11 12 13 13 14 15 15 14 13 12 9 9 7 7 7 9 9 9 9 10 9 9
6 5 5 5 5 4 3 1 1 2 2 3 5 5 5 8 9 9 9 8 9 9 10 11 13 14 15 15 14 13 13 11 9 8 7 7 9 10 10 10 10 9 9
6 6 5 5 5 5 4 3 2 3 3 3 6 6 7 7 8 8 8 8 8 8 9 10 11 14 15 15 14 14 13 9 9 7 6 7 9 10 10 11 10 9 9
8 8 6 5 5 5 4 3 3 3 4 4 4 6 7 6 6 6 8 9 9 9 9 10 10 12 13 12 13 14 11 10 9 7 6 8 10 10 11 11 10 10 9
8 8 7 6 5 4 4 3 2 2 3 4 4 5 6 5 5 5 6 7 8 8 8 8 10 10 10 10 10 11 11 10 7 7 8 9 10 11 12 11 11 10 9
9 8 8 6 5 5 4 4 3 2 3 3 4 5 4 4 4 5 5 5 6 6 6 7 7 8 9 10 12 12 12 9 8 7 7 9 10 11 11 11 11 10 9
9 8 7 7 6 5 4 4 4 4 3 4 4 4 5 5 5 5 5 5 6 6 6 6 7 8 8 9 10 12 12 11 10 9 7 9 9 10 11 11 11 10 10
9 9 7 7 6 6 5 5 5 4 4 4 5 5 6 6 6 6 5 6 6 7 7 7 7 7 7 8 9 11 12 11 11 10 9 10 10 10 11 12 11 11 10
9 9 8 8 7 6 6 6 5 5 5 4 5 7 6 6 7 7 6 6 6 7 7 7 7 7 7 7 9 10 10 11 10 11 10 9 11 11 11 11 11 11 11
9 9 8 7 7 7 6 6 5 6 6 5 5 6 7 7 7 7 6 6 6 6 6 6 7 7 7 7 8 8 8 9 11 11 10 10 10 10 11 11 11 11 11
9 8 8 8 7 7 7 6 6 6 6 5 5 6 7 8 8 7 6 6 7 6 6 7 7 7 8 8 7 7 8 8 10 10 11 11 10 10 10 11 11 10 11
8 8 8 7 7 6 6 6 5 5 6 5 6 7 8 7 8 7 6 7 8 6 7 7 8 8 7 7 6 6 7 7 8 10 11 10 10 11 11 10 10 10 10
8 8 8 8 6 5 5 5 5 6 5 6 7 8 9 9 9 7 6 8 8 8 8 9 8 9 8 7 5 5 5 7 8 8 9 9 10 10 11 10 10 9 9
9 8 9 8 7 7 6 6 6 6 6 6 6 7 8 9 9 7 9 8 8 8 9 9 9 8 7 8 6 5 5 5 7 9 8 9 10 9 10 11 10 10 9
10 9 8 8 8 8 7 6 6 5 5 6 7 7 8 9 9 9 10 9 9 9 9 10 10 11 9 9 9 6 5 6 4 6 9 9 10 9 9 9 10 10 10
10 10 9 9 8 8 7 7 8 8 8 8 7 7 8 10 10 10 10 11 10 9 10 11 11 10 10 9 9 8 7 3 4 4 6 9 10 10 10 9 9 10 10
10 9 9 8 9 8 8 8 9 9 9 8 8 9 9 9 10 11 11 11 11 10 10 11 11 11 10 11 9 8 8 6 6 5 5 8 8 8 9 9 8 8 9
10 9 9 9 9 8 8 9 9 10 10 9 9 9 8 7 8 11 11 11 11 10 10 11 11 12 11 12 11 10 8 7 7 6 6 8 8 7 9 8 8 8 9
Wind_Direction
347 345 355 356 21 58 115 154 161 164 161 162 162 163 162 161 159 159 160 158 155 154 153 150 147 145 142 139 134 127 123 119 116 113 110 109 107 105 103 103 104 97 94
339 348 14 11 32 58 86 121 149 161 167 166 166 167 167 165 164 163 162 163 162 160 159 156 153 149 144 138 134 130 126 121 119 115 116 114 110 108 106 100 93 97 98
352 360 20 22 32 52 78 94 130 151 166 170 171 171 171 171 170 168 167 169 168 167 163 157 152 148 143 140 136 133 130 126 122 123 134 125 117 114 111 109 104 102 101
358 3 19 26 30 41 63 83 105 145 159 170 173 173 174 175 175 174 172 172 170 169 164 156 153 149 146 143 139 137 135 132 130 144 144 128 124 121 120 114 109 107 104
360 1 10 22 29 39 50 72 91 127 149 164 176 178 177 179 181 179 177 175 172 167 164 161 159 155 152 148 144 142 140 138 142 154 138 131 125 123 122 114 108 108 105
352 356 2 8 21 41 47 56 86 114 148 153 166 174 178 180 183 182 180 179 175 171 168 166 164 161 156 153 151 149 148 150 160 152 144 137 130 127 126 120 115 111 106
340 344 350 352 358 29 46 55 71 106 146 160 162 172 174 176 182 184 185 183 180 177 174 172 169 167 163 160 158 156 156 164 165 152 149 142 131 131 133 127 123 118 112
332 333 335 342 339 347 24 46 75 79 158 170 166 175 180 178 178 181 185 186 185 184 181 178 175 171 169 166 163 161 161 172 168 160 157 148 135 142 140 134 130 124 119
329 327 329 328 313 276 257 7 226 198 212 192 184 180 185 180 179 181 179 182 187 190 188 184 180 177 174 170 166 165 163 177 175 165 165 158 149 154 148 142 138 130 126
321 319 318 321 323 294 255 216 221 224 225 210 192 186 183 185 184 179 179 176 182 189 191 191 187 182 178 173 169 167 165 180 181 174 173 160 159 164 159 153 148 140 135
315 314 311 311 321 312 277 249 225 215 215 212 198 184 183 192 189 183 182 173 181 185 190 192 194 187 179 175 172 171 175 186 183 182 177 159 173 175 167 161 156 150 147
314 315 307 306 310 317 294 259 239 227 219 221 216 201 199 203 197 193 174 173 178 181 186 190 192 189 188 183 177 179 188 191 187 185 176 168 183 180 171 168 164 160 156
306 311 305 299 299 301 297 271 255 246 233 231 219 208 208 202 194 190 177 175 178 182 186 183 191 197 198 190 185 189 191 190 191 185 178 176 191 188 180 175 172 168 165
300 303 309 299 289 289 290 275 256 251 242 237 218 210 212 203 200 198 194 191 191 192 193 195 199 198 203 198 195 193 192 193 193 189 177 177 194 194 188 182 181 177 175
296 298 304 298 289 280 281 274 256 245 239 228 215 209 216 212 204 204 204 200 201 199 199 205 206 201 204 203 201 199 197 198 196 194 182 179 197 200 197 194 191 187 184
295 295 297 293 285 275 267 266 260 246 237 233 220 209 213 216 211 207 208 207 206 202 204 211 213 208 205 204 205 204 202 201 202 199 196 188 196 203 205 204 200 196 194
293 292 288 288 280 273 264 263 259 248 234 231 225 211 209 218 216 211 209 211 210 207 208 213 215 213 209 205 208 207 206 205 202 203 202 201 199 201 207 209 207 206 203
292 289 287 285 279 275 267 266 262 250 234 225 224 217 211 216 219 212 209 213 211 210 210 211 214 213 210 209 209 208 208 205 206 206 206 206 204 204 204 207 210 212 209
293 290 287 283 275 278 276 265 258 252 237 231 224 226 215 215 216 215 213 212 209 211 215 214 217 216 214 213 212 211 212 208 206 207 209 210 209 208 208 200 204 212 213
295 293 287 283 277 279 275 269 262 253 240 233 232 227 218 215 213 216 216 214 210 211 215 217 217 218 217 213 212 215 216 213 210 210 210 211 212 210 213 209 207 208 209
298 299 294 289 283 278 273 268 262 256 242 234 233 229 218 215 213 213 212 213 214 214 216 218 217 215 214 206 208 216 222 220 216 213 210 211 210 210 213 213 212 213 210
308 301 294 285 280 275 272 265 256 256 248 241 239 233 222 217 215 215 212 212 216 218 219 219 215 214 216 206 207 203 212 215 216 216 211 211 210 205 209 212 212 212 214
308 304 298 287 281 277 274 268 264 260 251 244 239 237 228 222 221 220 220 216 217 218 219 218 218 217 214 212 212 211 209 214 200 204 211 209 209 207 208 210 212 213 214
306 304 295 287 283 279 273 264 258 252 253 248 242 239 234 226 223 223 224 222 219 220 220 220 221 223 215 215 216 224 229 218 205 199 204 208 208 211 212 209 211 212 213
308 308 300 297 289 282 270 262 256 251 255 251 246 241 236 231 226 224 225 224 222 223 223 223 223 224 219 220 219 217 220 217 220 216 213 204 208 213 214 213 212 211 213
316 315 312 303 293 286 273 264 258 253 253 250 250 247 238 234 233 228 225 226 223 222 222 223 225 225 223 223 222 220 217 211 210 213 218 210 211 210 208 211 212 212 213
Height
1500 1499 1498 1498 1499 1500 1501 1502 1503 1504 1505 1506 1507 1508 1509 1510 1511 1512 1512 1513 1514 1514 1515 1515 1516 1516 1516 1517 1517 1518 1518 1518 1518 1518 1518 1519 1519 1519 1519 1519 1519 1519 1519
1500 1499 1499 1499 1499 1500 1501 1502 1503 1504 1505 1506 1507 1508 1509 1510 1510 1511 1512 1513 1513 1514 1515 1516 1516 1516 1517 1517 1517 1518 1518 1518 1519 1519 1519 1519 1519 1519 1519 1519 1519 1520 1519
1499 1499 1499 1499 1500 1500 1501 1502 1502 1504 1505 1506 1507 1508 1508 1509 1510 1511 1512 1512 1513 1514 1515 1515 1516 1516 1517 1517 1518 1518 1518 1519 1519 1520 1520 1521 1520 1520 1520 1520 1520 1520 1520
1499 1499 1499 1499 1499 1500 1501 1501 1502 1503 1504 1505 1506 1507 1508 1508 1509 1510 1511 1512 1513 1513 1514 1515 1515 1516 1516 1517 1517 1518 1518 1519 1519 1520 1522 1522 1521 1521 1521 1521 1520 1520 1521
1499 1498 1498 1499 1499 1499 1500 1500 1501 1502 1503 1504 1505 1506 1506 1507 1508 1509 1510 1511 1512 1513 1513 1514 1515 1515 1516 1517 1517 1518 1518 1519 1520 1521 1521 1522 1522 1521 1521 1521 1521 1521 1521
1498 1498 1497 1497 1498 1498 1499 1499 1500 1500 1501 1502 1503 1504 1505 1506 1507 1508 1509 1510 1511 1512 1512 1513 1514 1515 1515 1516 1517 1517 1518 1519 1520 1521 1521 1522 1522 1521 1521 1521 1521 1522 1522
1497 1496 1496 1496 1496 1496 1497 1497 1498 1499 1500 1500 1501 1502 1503 1504 1505 1506 1507 1508 1509 1510 1511 1512 1513 1513 1514 1515 1516 1517 1518 1518 1520 1520 1521 1521 1521 1521 1521 1521 1522 1522 1522
1495 1495 1494 1494 1494 1494 1495 1495 1496 1497 1498 1498 1499 1500 1501 1502 1503 1504 1505 1506 1508 1509 1510 1510 1511 1512 1513 1514 1515 1516 1517 1518 1519 1520 1521 1521 1521 1521 1521 1521 1522 1522 1522
1493 1492 1492 1492 1492 1492 1492 1493 1493 1494 1495 1496 1497 1498 1499 1500 1501 1502 1503 1504 1505 1507 1508 1509 1510 1510 1512 1513 1514 1515 1516 1517 1519 1520 1520 1521 1520 1520 1521 1521 1521 1521 1521
1491 1490 1489 1489 1489 1489 1489 1489 1490 1491 1492 1493 1494 1495 1496 1497 1498 1499 1501 1502 1503 1504 1505 1506 1508 1509 1510 1511 1512 1514 1515 1516 1518 1518 1519 1519 1519 1520 1520 1520 1520 1521 1521
1488 1487 1486 1486 1485 1485 1486 1486 1487 1487 1488 1489 1490 1491 1493 1494 1495 1496 1497 1499 1500 1501 1503 1504 1505 1507 1508 1509 1510 1512 1513 1515 1516 1517 1517 1518 1518 1519 1519 1519 1520 1520 1520
1484 1484 1483 1482 1482 1482 1482 1483 1483 1484 1484 1486 1487 1488 1489 1490 1492 1493 1494 1496 1497 1498 1500 1501 1502 1504 1506 1507 1508 1510 1511 1513 1515 1515 1515 1516 1517 1518 1518 1518 1519 1519 1519
1481 1480 1479 1479 1478 1478 1478 1479 1479 1480 1480 1481 1483 1484 1485 1487 1488 1490 1491 1492 1494 1495 1497 1498 1499 1501 1503 1504 1505 1507 1509 1511 1512 1513 1513 1514 1515 1516 1517 1517 1517 1518 1518
1478 1476 1476 1475 1475 1474 1475 1475 1476 1476 1477 1477 1478 1480 1481 1482 1484 1486 1487 1488 1490 1491 1493 1494 1496 1498 1499 1501 1502 1504 1506 1507 1509 1510 1511 1512 1513 1514 1515 1516 1516 1516 1517
1474 1472 1472 1471 1471 1471 1471 1471 1471 1472 1473 1473 1474 1476 1477 1478 1480 1481 1483 1484 1486 1488 1489 1491 1493 1494 1496 1497 1498 1500 1502 1504 1505 1507 1508 1509 1511 1512 1513 1514 1514 1514 1515
1470 1469 1468 1467 1467 1467 1466 1467 1467 1468 1468 1469 1470 1471 1473 1474 1475 1477 1478 1480 1482 1483 1485 1487 1489 1490 1492 1494 1495 1497 1498 1500 1502 1504 1505 1506 1508 1509 1510 1511 1512 1512 1512
1466 1465 1464 1463 1463 1462 1462 1462 1463 1463 1464 1464 1466 1466 1468 1470 1471 1472 1474 1475 1477 1479 1481 1483 1485 1486 1488 1489 1491 1493 1494 1496 1497 1500 1502 1503 1505 1506 1507 1508 1509 1509 1510
1463 1461 1460 1459 1458 1458 1457 1457 1458 1459 1459 1460 1461 1461 1463 1465 1466 1468 1469 1471 1473 1474 1476 1478 1480 1482 1483 1485 1487 1489 1490 1492 1493 1495 1497 1499 1501 1502 1504 1505 1506 1507 1507
1459 1457 1455 1454 1453 1453 1452 1453 1453 1454 1454 1455 1456 1457 1458 1459 1461 1463 1464 1466 1468 1469 1472 1474 1476 1477 1479 1481 1483 1485 1486 1487 1489 1491 1493 1495 1496 1498 1500 1501 1502 1503 1504
1455 1453 1451 1450 1449 1448 1447 1448 1448 1449 1449 1450 1451 1452 1453 1454 1456 1458 1460 1461 1463 1465 1467 1469 1471 1473 1475 1477 1479 1480 1482 1483 1484 1486 1488 1490 1492 1493 1496 1497 1498 1499 1500
1451 1449 1447 1445 1444 1443 1443 1443 1443 1443 1444 1445 1446 1446 1448 1449 1451 1453 1454 1456 1458 1460 1462 1464 1466 1468 1470 1472 1475 1476 1478 1479 1480 1481 1483 1485 1487 1488 1491 1492 1494 1495 1496
1447 1445 1443 1441 1440 1440 1439 1438 1438 1439 1439 1440 1441 1441 1442 1444 1445 1447 1449 1451 1453 1455 1457 1460 1461 1463 1465 1467 1470 1472 1474 1475 1474 1476 1477 1480 1482 1483 1485 1488 1489 1490 1491
1443 1441 1439 1437 1436 1435 1435 1434 1434 1434 1434 1434 1435 1435 1437 1439 1440 1442 1444 1446 1448 1450 1452 1454 1456 1458 1460 1462 1465 1467 1468 1468 1470 1471 1472 1474 1476 1478 1480 1483 1484 1486 1487
1440 1437 1435 1433 1432 1431 1430 1429 1429 1428 1428 1429 1430 1431 1433 1434 1436 1437 1439 1441 1442 1444 1447 1449 1451 1453 1455 1457 1459 1461 1463 1463 1465 1465 1467 1468 1470 1472 1475 1477 1479 1480 1482
1436 1433 1431 1428 1427 1426 1425 1425 1424 1424 1424 1425 1426 1426 1428 1429 1431 1432 1434 1435 1437 1439 1441 1443 1445 1447 1449 1451 1453 1454 1456 1458 1459 1460 1461 1463 1465 1467 1469 1471 1473 1475 1477
1432 1429 1426 1424 1422 1421 1420 1419 1419 1419 1419 1419 1420 1420 1422 1423 1424 1426 1428 1429 1431 1433 1435 1437 1439 1441 1443 1445 1447 1449 1450 1452 1453 1455 1456 1457 1459 1461 1463 1465 1467 1469 1471